Location: Unspecified
(0.0000°N, 0.0000°E)
Time: 09:08:33
(UTC+00:00)

Envisat - Pass Details

Date: 05 June 2020
Orbit: 764 x 766 km, 98.1° (Epoch: 06 July)

Event Time Altitude Azimuth Distance (km) Brightness Sun altitude
Rises 04:43:57 0° 54° (NE) 3,216 7.8 -17.2°
Reaches altitude 10° 04:48:50 10° 96° (E) 2,295 6.4 -16.1°
Maximum altitude 04:49:25 10° 103° (ESE) 2,283 6.3 -15.9°
Drops below altitude 10° 04:49:59 10° 109° (ESE) 2,296 6.1 -15.8°
Sets 04:54:52 0° 152° (SSE) 3,227 6.3 -14.7°
